Location: Unspecified
(58.7730°N, 5.8460°E)
Time: 21:39:53
(UTC+01:00)

Resurs 1-4 Rocket - Visible Passes

Search period start: 27 November 2014 00:00
Search period end: 07 December 2014 00:00
Orbit: 800 x 815 km, 98.4° (Epoch: 27 November)

Date Brightness Start Highest point End Pass type
(mag) Time Alt. Az. Time Alt. Az. Time Alt. Az.
27 Nov 4.4 03:22:06 10° NE 03:25:15 20° ENE 03:25:15 20° ENE visible
27 Nov 2.0 05:01:20 10° NNE 05:06:20 80° NE 05:06:20 80° NE visible
27 Nov 3.1 06:41:44 10° N 06:46:01 26° NW 06:47:24 23° WNW visible
28 Nov 4.8 02:58:23 10° NE 03:00:21 14° ENE 03:00:21 14° ENE visible
28 Nov 2.6 04:36:54 10° NNE 04:41:26 56° ENE 04:41:26 56° ENE visible
28 Nov 2.7 06:17:06 10° N 06:21:49 34° NW 06:22:31 33° WNW visible
28 Nov 3.9 07:58:25 10° NNW 08:00:20 12° NNW 08:02:15 10° NW visible
29 Nov 3.3 04:12:32 10° NNE 04:16:33 39° ENE 04:16:33 39° ENE visible
29 Nov 2.3 05:52:31 10° N 05:57:32 46° WNW 05:57:38 46° WNW visible
29 Nov 3.7 07:33:24 10° N 07:36:19 15° NW 07:38:42 12° WNW visible
29 Nov 4.9 17:25:56 10° WSW 17:28:32 14° W 17:31:09 10° NW visible
30 Nov 3.9 03:48:17 10° NNE 03:51:40 27° ENE 03:51:40 27° ENE visible
30 Nov 2.1 05:27:58 10° NNE 05:32:45 62° NW 05:32:45 62° NW visible
30 Nov 3.4 07:08:36 10° N 07:12:15 19° NW 07:13:50 17° WNW visible
30 Nov 4.7 16:59:53 10° SW 17:03:41 20° W 17:07:30 10° NW visible
01 Dec 4.4 03:24:11 10° NE 03:26:47 19° ENE 03:26:47 19° ENE visible
01 Dec 2.3 05:03:28 10° NNE 05:07:52 63° NNE 05:07:52 63° NNE visible
01 Dec 3.1 06:43:54 10° N 06:48:07 25° NW 06:48:57 24° WNW visible
01 Dec 4.3 16:34:25 10° SSW 16:38:56 28° W 16:43:27 10° NNW visible
02 Dec 4.8 03:00:25 10° NE 03:01:55 14° ENE 03:01:55 14° ENE visible
02 Dec 2.8 04:39:02 10° NNE 04:43:00 48° NE 04:43:00 48° NE visible
02 Dec 2.7 06:19:15 10° N 06:23:56 33° NW 06:24:05 33° WNW visible
02 Dec 3.9 08:00:40 10° NNW 08:02:25 12° NNW 08:04:11 10° NW visible
03 Dec 3.5 04:14:40 10° NNE 04:18:08 35° NE 04:18:08 35° NE visible
03 Dec 2.4 05:54:40 10° N 05:59:13 44° NW 05:59:13 44° NW visible
03 Dec 3.7 07:35:36 10° N 07:38:25 15° NW 07:40:18 12° WNW visible
03 Dec 5.0 17:28:20 10° WSW 17:30:43 13° W 17:33:08 10° NW visible
04 Dec 4.0 03:50:23 10° NNE 03:53:16 25° ENE 03:53:16 25° ENE visible
04 Dec 2.3 05:30:07 10° NNE 05:34:21 52° NNW 05:34:21 52° NNW visible
04 Dec 3.4 07:10:47 10° N 07:14:21 19° NW 07:15:26 18° WNW visible
04 Dec 4.7 17:02:11 10° SW 17:05:52 19° W 17:09:34 10° NW visible
05 Dec 4.5 03:26:16 10° NE 03:28:25 18° ENE 03:28:25 18° ENE visible
05 Dec 2.6 05:05:37 10° NNE 05:09:30 51° NNE 05:09:30 51° NNE visible
05 Dec 3.1 06:46:04 10° N 06:50:14 24° NW 06:50:35 24° NW visible
05 Dec 4.3 16:36:40 10° SSW 16:41:06 27° W 16:45:33 10° NNW visible
06 Dec 4.9 03:02:27 10° NE 03:03:34 13° ENE 03:03:34 13° ENE visible
06 Dec 3.1 04:41:10 10° NNE 04:44:39 41° NE 04:44:39 41° NE visible
06 Dec 2.8 06:21:25 10° N 06:25:44 32° NW 06:25:44 32° NW visible
06 Dec 3.9 08:02:54 10° NNW 08:04:30 11° NNW 08:06:06 10° NW visible
